Skip Page Navigation
NASA JPL Caltech
NASA Logo - Jet Propulsion Laboratory + View the NASA Portal
+ Center for Near-Earth Object Studies
JPL Home Earth Solar System Stars & Galaxies Technology
JPL Solar System Dynamics
BODIES ORBITS EPHEMERIDES TOOLS PHYSICAL DATA DISCOVERY FAQ SITE MAP
IMPORTANT: The SSD Announcement email list is now available. Major changes are coming in the near future, including possible hostname and/or URL changes. To be notified of such changes, subscribe to this email list.

Please visit this page for more details.


JPL Small-Body Database Browser
Search: [ help ]  
52754 (1998 KN62)
Classification: Main-belt Asteroid          SPK-ID: 2052754
Ephemeris | Orbit Diagram | Orbital Elements | Mission Design | Physical Parameters | Discovery Circumstances | Close-Approach Data ]

[ show orbit diagram ]
Orbital Elements at Epoch 2459000.5 (2020-May-31.0) TDB
Reference: JPL 27 (heliocentric ecliptic J2000)
 Element Value Uncertainty (1-sigma)   Units 
e .2036226448564728 3.7657e-08  
a 3.16199286331242 1.7784e-08 au
q 2.518139513467454 1.1732e-07 au
i 12.69686301167434 4.594e-06 deg
node 53.65235766930383 1.9001e-05 deg
peri 98.30203303351378 2.1891e-05 deg
M 29.50293500918473 1.017e-05 deg
tp 2458832.192884583543
(2019-Dec-14.69288458)
5.7819e-05 TDB
period 2053.713012995545
5.62
1.7326e-05
4.744e-08
d
yr
n .1752922622206615 1.4789e-09 deg/d
Q 3.805846213157387 2.1405e-08 au
  Orbit Determination Parameters
   # obs. used (total)      1344  
   data-arc span      8042 days (22.02 yr)  
   first obs. used      1998-04-22  
   last obs. used      2020-04-28  
   planetary ephem.      DE431  
   SB-pert. ephem.      SB431-N16  
   condition code      0  
   norm. resid. RMS      .47872  
   source      ORB  
   producer      Otto Matic  
   solution date      2020-May-20 10:27:11  

Additional Information
 Earth MOID = 1.56672 au 
 Jupiter MOID = 1.42773 au 
 T_jup = 3.135 
[ show covariance matrix ]

Ephemeris | Orbit Diagram | Orbital Elements | Mission Design | Physical Parameters | Discovery Circumstances | Close-Approach Data ]

Physical Parameter Table
Parameter Symbol Value Units Sigma Reference Notes
absolute magnitude H 13.5   n/a MPO502508  
diameter diameter 11.927 km 0.316 urn:nasa:pds:neowise_diameters_albedos::2.0[mainbelt] (http://adsabs.harvard.edu/abs/2011ApJ...741...68M)  
geometric albedo albedo 0.034   0.006 urn:nasa:pds:neowise_diameters_albedos::2.0[mainbelt] (http://adsabs.harvard.edu/abs/2011ApJ...741...68M)  

52754 (1998 KN62)          Discovered 1998-May-22 by LINEAR at Socorro
Reference: 20030216/Numbers.arcLast Updated: 2004-04-19

[ show close-approach data ]
Alternate Designations
 1998 KN62 = 2000 ST362 
Ephemeris | Orbit Diagram | Orbital Elements | Mission Design | Physical Parameters | Discovery Circumstances | Close-Approach Data ]
ABOUT SSD CREDITS/AWARDS PRIVACY/COPYRIGHT GLOSSARY LINKS
FirstGov 2020-Jun-03 14:20 UT
(server date/time)  
NASA Home Page
Site Manager:   Ryan S. Park
Webmaster  Alan B. Chamberlin